This is the latest recevied weather packets stored in our database for station/object NC4M. If no packets are shown the sender has not sent any weather packets the latest 10 day(s).
| Time | Temp. | Humidity | Pressure | Rain* | Wind** | Luminosity | Snow |
|---|---|---|---|---|---|---|---|
| 1778085577 | 12.78° C | 65% | 1017.7 hPa | 0 mm | - | 564 W/m² | - |
| 1778085271 | 12.22° C | 70% | 1017.7 hPa | 0 mm | - | 516 W/m² | - |
| 1778084967 | 12.22° C | 68% | 1017.4 hPa | 0 mm | - | 337 W/m² | - |
| 1778084665 | 12.22° C | 70% | 1017.4 hPa | 0 mm | - | 391 W/m² | - |
| 1778084362 | 12.22° C | 70% | 1017.3 hPa | 0 mm | - | 328 W/m² | - |
| 1778084060 | 12.22° C | 71% | 1017.5 hPa | 0 mm | - | 305 W/m² | - |
| 1778083757 | 12.22° C | 68% | 1017.5 hPa | 0 mm | - | 387 W/m² | - |
| 1778083454 | 12.22° C | 67% | 1017.3 hPa | 0 mm | - | 338 W/m² | - |
| 1778083152 | 11.67° C | 71% | 1017.3 hPa | 0 mm | - | 395 W/m² | - |
| 1778082849 | 11.67° C | 68% | 1017.4 hPa | 0 mm | - | 365 W/m² | - |
| 1778081731 | 11.11° C | 75% | 1017 hPa | 0 mm | - | 219 W/m² | - |
| 1778081428 | 10.56° C | 74% | 1016.9 hPa | 0 mm | - | 189 W/m² | - |
| 1778081125 | 10.56° C | 76% | 1016.9 hPa | 0 mm | - | 179 W/m² | - |
| 1778080823 | 10.56° C | 74% | 1016.8 hPa | 0 mm | - | 215 W/m² | - |
| 1778080521 | 10.56° C | 74% | 1016.8 hPa | 0 mm | - | 193 W/m² | - |
| 1778080218 | 10° C | 75% | 1016.7 hPa | 0 mm | - | 247 W/m² | - |
| 1778079914 | 10° C | 76% | 1016.6 hPa | 0 mm | - | 236 W/m² | - |
| 1778079611 | 10° C | 78% | 1016.7 hPa | 0 mm | - | 188 W/m² | - |
| 1778079307 | 10° C | 77% | 1016.5 hPa | 0 mm | - | 195 W/m² | - |
| 1778079005 | 9.44° C | 79% | 1016.5 hPa | 0 mm | - | 196 W/m² | - |
| 1778078701 | 9.44° C | 79% | 1016.5 hPa | 0 mm | - | 152 W/m² | - |
| 1778078399 | 9.44° C | 78% | 1016.5 hPa | 0 mm | - | 176 W/m² | - |
| 1778078096 | 9.44° C | 80% | 1016.6 hPa | 0 mm | - | 172 W/m² | - |
| 1778077795 | 9.44° C | 81% | 1016.4 hPa | 0 mm | - | 159 W/m² | - |
| 1778077492 | 9.44° C | 80% | 1016.5 hPa | 0 mm | - | 157 W/m² | - |
* Rain latest hour (hover to see other rain measurements)
** Current wind speed in m/s (hover to see current wind gust speed)